M0CJS Weather Reports


Display with metric or nautical units.
time (UTC)temp
F
wind
direction
speed
MPH
gust
MPH
rain 1hr
in
rain 24hr
in
rain mn
in
humidity
%
barometer
mb
20260508015516 51 180 1.0 4.0 0.00 0.01 0.00 83
20260508014536 51 158 1.0 5.0 0.00 0.01 0.00 83
20260508013516 51 158 1.0 2.0 0.00 0.01 0.00 83
20260508012516 51 180 1.0 3.0 0.00 0.01 0.00 83
20260508011516 51 158 2.0 6.0 0.00 0.01 0.00 83
20260508010516 51 158 1.0 5.0 0.00 0.01 0.00 83
20260508005536 52 158 1.0 3.0 0.00 0.01 0.00 82
20260508004516 52 158 1.0 4.0 0.00 0.01 0.00 82
20260508003516 52 158 2.0 7.0 0.00 0.01 0.00 82
20260508002516 52 158 1.0 4.0 0.00 0.01 0.00 82
20260508001516 52 0.0 2.0 0.00 0.01 0.00 81
20260508000516 52 158 2.0 4.0 0.00 0.01 0.00 81
20260507235516 52 158 1.0 4.0 0.00 0.01 0.00 80
20260507234516 52 158 1.0 3.0 0.00 0.01 0.00 79
20260507233516 52 158 1.0 3.0 0.00 0.01 0.00 80 1017.7
20260507232516 52 0.0 0.0 0.00 0.01 0.00 79 1017.7
20260507231516 52 0.0 0.0 0.00 0.01 0.00 79 1017.7
20260507230516 53 0.0 2.0 0.00 0.01 0.00 78 1017.8
20260507225516 53 158 1.0 4.0 0.00 0.01 0.01 78 1017.7
20260507224516 53 180 2.0 4.0 0.00 0.01 0.01 77 1017.8
20260507223516 53 158 1.0 4.0 0.00 0.01 0.01 77 1017.9
20260507222516 53 158 2.0 6.0 0.00 0.01 0.01 76 1017.9
20260507221516 53 158 1.0 4.0 0.00 0.01 0.01 76 1017.9
20260507220516 53 158 1.0 2.0 0.00 0.01 0.01 75 1017.8
20260507215516 54 158 1.0 5.0 0.00 0.01 0.01 75 1017.7
20260507214516 54 0.0 2.0 0.00 0.01 0.01 74 1017.8
20260507213516 54 158 2.0 4.0 0.00 0.01 0.01 74 1017.8
20260507212516 54 158 2.0 4.0 0.00 0.01 0.01 74 1017.8
20260507211516 54 158 1.0 6.0 0.00 0.01 0.01 73 1017.6
20260507210516 55 180 2.0 5.0 0.00 0.01 0.01 73 1017.6
20260507205516 55 180 3.0 6.0 0.00 0.01 0.01 72 1017.6
20260507204516 55 158 2.0 6.0 0.00 0.01 0.01 72 1017.4
20260507203616 55 135 1.0 4.0 0.00 0.01 0.01 71 1017.3
20260507202515 55 158 1.0 2.0 0.00 0.01 0.01 70 1017.1
20260507201515 55 135 1.0 3.0 0.00 0.01 0.01 69 1017.0
20260507200516 55 135 1.0 3.0 0.00 0.01 0.01 68 1017.0
20260507195516 55 135 1.0 2.0 0.00 0.01 0.01 67 1016.9
20260507194515 56 135 1.0 4.0 0.00 0.01 0.01 66 1016.7
20260507193517 56 135 1.0 3.0 0.00 0.01 0.01 66 1016.6
20260507192517 56 135 1.0 2.0 0.00 0.01 0.01 66 1016.6
20260507191515 56 158 1.0 6.0 0.00 0.01 0.01 65 1016.6
20260507190516 56 135 1.0 3.0 0.00 0.01 0.01 65 1016.6
20260507185517 56 158 1.0 3.0 0.00 0.01 0.01 65 1016.6
20260507184515 57 113 1.0 2.0 0.00 0.01 0.01 64 1016.5
20260507183515 57 90 1.0 5.0 0.00 0.01 0.01 62 1016.4
20260507182516 57 135 1.0 3.0 0.00 0.01 0.01 60 1016.4
20260507181515 57 0.0 2.0 0.00 0.01 0.01 60 1016.3
20260507180515 58 135 1.0 3.0 0.00 0.01 0.01 59 1016.3
20260507175515 58 0.0 1.0 0.00 0.01 0.01 59 1016.3
20260507174515 58 135 1.0 4.0 0.00 0.01 0.01 57 1016.2
20260507173515 59 90 1.0 3.0 0.00 0.01 0.01 56 1016.2
20260507172517 59 158 1.0 2.0 0.00 0.01 0.01 56 1016.2
20260507171517 59 135 1.0 3.0 0.00 0.01 0.01 55 1016.3
20260507170517 59 90 1.0 4.0 0.00 0.01 0.01 56 1016.2
20260507165537 59 113 1.0 3.0 0.00 0.01 0.01 56 1016.3
20260507164517 59 113 1.0 3.0 0.00 0.01 0.01 55 1016.3
20260507163517 59 90 1.0 3.0 0.00 0.01 0.01 54 1016.4
20260507162537 60 113 1.0 5.0 0.00 0.01 0.01 54 1016.4
20260507161517 60 113 1.0 2.0 0.00 0.01 0.01 51 1016.4
20260507160517 61 158 2.0 6.0 0.00 0.01 0.01 53 1016.4
20260507155517 61 135 2.0 7.0 0.00 0.01 0.01 52 1016.4
20260507154517 61 90 1.0 6.0 0.00 0.01 0.01 53 1016.5
20260507153537 60 135 1.0 4.0 0.00 0.01 0.01 54 1016.5
20260507152517 60 68 1.0 4.0 0.00 0.01 0.01 54 1016.5
20260507151517 60 135 1.0 4.0 0.00 0.01 0.01 52 1016.7
20260507150517 61 90 2.0 5.0 0.00 0.01 0.01 51 1016.7
20260507145517 61 135 1.0 2.0 0.00 0.01 0.01 51 1016.8
20260507144517 61 90 1.0 4.0 0.01 0.01 0.01 51 1016.9
20260507143517 60 68 2.0 5.0 0.01 0.01 0.01 51 1017.0
20260507142517 60 135 1.0 5.0 0.01 0.01 0.01 52 1017.0
20260507141557 60 90 1.0 3.0 0.01 0.01 0.01 51 1016.9
20260507140557 60 90 1.0 3.0 0.01 0.01 0.01 51 1017.1
20260507135517 63 90 1.0 3.0 0.01 0.01 0.01 49 1017.1
20260507134517 0 0.0 0.0 0.00 0.00 0.00
20260507133517 0 0.0 0.0 0.00 0.00 0.00
20260507132537 0 0.0 0.0 0.00 0.00 0.00
20260507131517 0 0.0 0.0 0.00 0.00 0.00
20260507130537 0 0.0 0.0 0.00 0.00 0.00
20260507125517 0 0.0 0.0 0.00 0.00 0.00
20260507124517 0 0.0 0.0 0.00 0.00 0.00
20260507123517 0 0.0 0.0 0.00 0.00 0.00
20260507122537 0 0.0 0.0 0.00 0.00 0.00
20260507121516 0 0.0 0.0 0.00 0.00 0.00
20260507120516 0 0.0 0.0 0.00 0.00 0.00
20260507115516 0 0.0 0.0 0.00 0.00 0.00
20260507114517 0 0.0 0.0 0.00 0.00 0.00
20260507113517 0 0.0 0.0 0.00 0.00 0.00
20260507112537 0 0.0 0.0 0.00 0.00 0.00
20260507111537 61 81 2.0 0.0 0.00 0.00 0.00 56 1017.7
20260507110516 61 135 1.0 2.0 0.00 0.00 0.00 56 1017.7
20260507105517 61 158 3.0 7.0 0.00 0.00 0.00 58 1017.9
20260507104537 61 90 1.0 5.0 0.00 0.00 0.00 57 1017.8
20260507103516 61 158 3.0 7.0 0.00 0.00 0.00 59 1018.0
20260507102516 60 90 1.0 3.0 0.00 0.00 0.00 60 1018.1
20260507101517 60 158 2.0 5.0 0.00 0.00 0.00 60 1018.2
20260507100516 60 158 2.0 7.0 0.00 0.00 0.00 60 1018.1
20260507095536 60 135 2.0 7.0 0.00 0.00 0.00 63 1018.2
20260507094516 59 180 2.0 5.0 0.00 0.00 0.00 66 1018.2
20260507093536 59 135 1.0 6.0 0.00 0.00 0.00 66 1018.2
20260507092516 58 180 2.0 8.0 0.00 0.00 0.00 67 1018.2
20260507091516 58 113 1.0 5.0 0.00 0.00 0.00 69 1018.2
20260507090516 57 158 3.0 7.0 0.00 0.00 0.00 70 1018.2
20260507085516 56 135 1.0 4.0 0.00 0.00 0.00 72 1018.2
20260507084536 56 158 3.0 8.0 0.00 0.00 0.00 71 1018.3
20260507083516 55 158 2.0 5.0 0.00 0.00 0.00 73 1018.3
20260507082516 54 158 3.0 7.0 0.00 0.00 0.00 74 1018.1
20260507081516 54 158 4.0 12.0 0.00 0.00 0.00 75 1018.1
20260507080516 52 180 3.0 6.0 0.00 0.00 0.00 78 1018.1
20260507075516 51 158 2.0 5.0 0.00 0.00 0.00 78 1018.1
20260507074516 51 158 2.0 5.0 0.00 0.00 0.00 77 1018.1
20260507073516 52 180 2.0 9.0 0.00 0.00 0.00 76 1018.1
20260507072516 52 0.0 2.0 0.00 0.00 0.00 77 1018.1
20260507071516 51 225 3.0 8.0 0.00 0.00 0.00 80 1018.1
20260507070536 49 0.0 2.0 0.00 0.00 0.00 83 1018.0
20260507065536 47 203 1.0 5.0 0.00 0.00 0.00 87 1018.0
20260507064516 46 0.0 4.0 0.00 0.00 0.00 87 1017.9
20260507063516 46 0.0 2.0 0.00 0.00 0.00 87 1017.9
20260507062516 46 158 1.0 4.0 0.00 0.00 0.00 88 1017.8
20260507061516 45 0.0 0.0 0.00 0.00 0.00 89 1017.8
20260507060516 45 0.0 0.0 0.00 0.00 0.00 89 1017.8
20260507055516 45 0.0 0.0 0.00 0.00 0.00 90 1017.7
20260507054516 45 0.0 0.0 0.00 0.00 0.00 90 1017.7
20260507053516 44 0.0 0.0 0.00 0.00 0.00 90 1017.6
20260507052536 44 0.0 0.0 0.00 0.00 0.00 91 1017.5
20260507051516 43 0.0 0.0 0.00 0.00 0.00 92 1017.5
20260507050516 43 0.0 0.0 0.00 0.00 0.00 92 1017.6
20260507045516 43 0.0 0.0 0.00 0.00 0.00 92 1017.5
20260507044516 43 0.0 0.0 0.00 0.00 0.00 92 1017.6
20260507043535 43 0.0 0.0 0.00 0.00 0.00 92 1017.5
20260507042516 43 0.0 0.0 0.00 0.00 0.00 92 1017.4
20260507041516 43 0.0 0.0 0.00 0.00 0.00 92 1017.4
20260507040516 43 0.0 0.0 0.00 0.00 0.00 92 1017.4
20260507035515 43 0.0 0.0 0.00 0.00 0.00 92 1017.4
20260507034516 43 0.0 0.0 0.00 0.00 0.00 92 1017.4
20260507033536 43 0.0 0.0 0.00 0.00 0.00 92 1017.5
20260507032516 42 0.0 0.0 0.00 0.00 0.00 92 1017.5
20260507031515 42 0.0 0.0 0.00 0.00 0.00 92 1017.6
20260507030515 42 0.0 0.0 0.00 0.00 0.00 92 1017.7
20260507025515 42 0.0 0.0 0.00 0.00 0.00 92 1017.7
20260507024536 42 0.0 0.0 0.00 0.00 0.00 92 1017.6
20260507023515 42 0.0 0.0 0.00 0.00 0.00 92 1017.7
20260507022515 42 0.0 0.0 0.00 0.00 0.00 92 1017.6
20260507021515 42 0.0 0.0 0.00 0.00 0.00 92 1017.6
20260507020535 42 0.0 0.0 0.00 0.00 0.00 92 1017.6